FREGAT DEB, 47336

Orbit data source: Space-Track

FREGAT DEB, 47336 is space debris in LEO originally from a launch on Mon, 18 Jul 2011 UTC launched from the Tyuratam Missile And Space Complex (TTMTR). Debris objects in space refer to the collection of defunct objects orbiting the Earth. Examples of debris include non-operational satellites, rocket bodies, and fragments generated from explosions, collisions, or faulty payload assembly.

Loading next visibility...
Identifier
47336, 2011-037NT
Orbit
LEO
Country
Flag of CISCIS
Related business
Manufacturer
Lavochkin
Mission
Spacecraft
Bus & Motor
Unknown
Mass
Unknown
Launch date (UTC)
2011-07-18 (15 years ago)
Launch vehicle
Unknown
Launch site
Tyuratam Missile And Space Complex (TTMTR)
Object type
Payload
Rocket body
Debris
Shape & HBR
Unknown shape, 0.1 m
Radar Cross Section
Medium (>0.1 m² and <1 m²)

Expand to show TLE details & history
Last TLE update: 1 day ago

TLE from 1 day ago
0 FREGAT DEB
1 47336U 11037NT  26254.58520572  .00061995  00000-0  40584-1 0  9990
2 47336  51.6448  34.1042 0799175 164.5672 198.1186 13.03503460250169
Epoch: 2026-09-11T14:02Z
TLE epoch observation values (Epoch: 2026-09-11T14:02:41.774Z)
Latitude
-0.00003°
Longitude
-167.17633°
Altitude
1,832.55 km
Speed
6.698 km/s
True Right ascension
02h 16m 25s
True Declination
0° 00' 00"
Sunlit
Object was in full shadow at epoch
Visualization orbit readout
Latitude
Unknown
Longitude
Unknown
Altitude
Unknown
Speed
Unknown
Apparent Right ascension
Unknown
Apparent Declination
Unknown
Sunlit
N/A
Visualization observer readout
Local Sidereal Time
07:06:32
Azimuth
Unknown
Elevation
Unknown
Doppler factor
Unknown
Orbital elements
Apogee altitude
1,858.381 km
Perigee altitude
639.321 km
Semi-major axis
7,626.988 km
Eccentricity
0.07992
Inclination
51.6448°
RAAN
34.1042°
Arg. of periapsis
164.5672°
True anomaly
195.51921°
Mean anomaly
198.1186°
Eccentric anomaly
196.79549°
Mean motion
3.25847 °/min
Orbital period
110.48 mins
BSTAR
0.040584
Loading maneuver chart data...
Computing Atmospheric mass density...
Loading historical data...
Loading historical data...
Loading historical data...
Loading historical data...
Loading historical data...
Loading historical data...
Loading historical data...

Documentation

Showing up to 5 results
|